SPROUT
1 39770U 14029E 16287.03784885 .00002044 00000-0 24163-3 0 9998
2 39770 97.8727 22.9716 0010391 62.9081 297.3177 14.85699521129430
EO-80
1 40032U 14033Y 16287.78285995 .00000927 00000-0 10767-3 0 9999
2 40032 97.9172 192.5126 0012943 34.8003 325.4057 14.87725708125800
VELOX-1
1 40057U 14034E 16287.77187027 .00000806 00000-0 12230-3 0 9996
2 40057 98.1925 18.3472 0012186 124.6282 235.6092 14.76860328123389
DAURIA DX 1
1 40071U 14037C 16287.72371287 .00000367 00000-0 54916-4 0 9993
2 40071 98.3313 23.2057 0009535 120.1259 240.0899 14.80892277122490
UKUBE-1
1 40074U 14037F 16287.88159029 .00000847 00000-0 11074-3 0 9991
2 40074 98.3373 26.0218 0005622 119.3878 240.7894 14.83231304122661
HODOYOSHI-1
1 40299U 14070B 16287.78105537 .00001905 00000-0 87205-4 0 9997
2 40299 97.4229 8.0863 0012102 233.6953 241.9363 15.21669853107463
CHUBUSAT-1
1 40300U 14070C 16287.77794506 .00002063 00000-0 97985-4 0 9991
2 40300 97.4178 5.9763 0019533 242.1246 232.3776 15.20210549107341
QSAT-EOS
1 40301U 14070D 16287.75138341 .00004437 00000-0 19639-3 0 9995
2 40301 97.4114 5.4521 0027293 241.1124 234.3211 15.21849161107339
FIREBIRD FU3
1 40377U 15003B 16287.84623639 .00008689 00000-0 38053-3 0 9998
2 40377 99.0982 57.3510 0141857 97.7895 263.9463 15.13647242 93721
FIREBIRD FU4
1 40378U 15003C 16287.84170484 .00008596 00000-0 37598-3 0 9994
2 40378 99.0984 57.3657 0142093 97.7322 264.0065 15.13667001 93729
GRIFEX
1 40379U 15003D 16287.79203383 .00006317 00000-0 29074-3 0 9993
2 40379 99.0988 56.0674 0146787 102.6037 259.1648 15.11630330 93648
NO-84
1 40654U 15025D 16287.39521050 .00023731 00000-0 47551-3 0 02513
2 40654 054.9966 255.5537 0199302 008.4792 351.9531 15.28083656042092
NO-83
1 40655U 15025E 16287.33834931 .00037341 00000-0 66278-3 0 02725
2 40655 054.9849 244.9573 0177489 014.0241 346.5489 15.34355470042218
DEORBITSAIL
1 40719U 15032E 16287.20851197 .00001043 00000-0 15966-3 0 9997
2 40719 98.0019 177.7193 0015552 214.6542 145.3655 14.75729038 67892
NUDT-PHONESAT
1 40900U 15049B 16287.87298159 .00007439 00000-0 37029-3 0 9992
2 40900 97.4457 293.5688 0014994 11.7074 348.4505 15.17787079 59071
XW-2D
1 40907U 15049J 16287.82275143 .00003127 00000-0 17539-3 0 9996
2 40907 97.4516 292.2113 0014593 352.7408 7.3610 15.14014337 58958
XW-2F
1 40910U 15049M 16287.81526722 .00003941 00000-0 21628-3 0 9999
2 40910 97.4543 292.5292 0015498 351.0202 9.0750 15.14626296 58847
XW-2B
1 40911U 15049N 16287.82378226 .00002894 00000-0 16273-3 0 9991
2 40911 97.4562 292.4551 0014485 353.0127 7.0900 15.13989483 58854
DCBB
1 40912U 15049P 16287.81718840 .00003621 00000-0 18810-3 0 9999
2 40912 97.4532 293.6516 0015891 345.8595 138.3575 15.16624330 58931
TW-1C
1 40926U 15051B 16287.78589848 .00012628 00000-0 33256-3 0 9995
2 40926 97.2633 323.4879 0012931 349.8255 100.9179 15.38584522 58981
TW-1A
1 40928U 15051D 16287.82304205 .00005138 00000-0 15718-3 0 9995
2 40928 97.2593 321.9554 0013999 9.4862 76.6768 15.34189146 58903
IO-86
1 40931U 15052B 16287.29036114 .00000873 00000-0 32668-4 0 9997
2 40931 6.0014 193.0914 0013847 350.1571 9.8366 14.76489472 56412
GomX-3
1 40949U 98067HA 16287.80543181 .01240390 10041-2 12134-2 0 9990
2 40949 51.6155 130.8486 0004680 246.9523 113.0998 16.10997835 58935
LQSat
1 40958U 15057A 16287.72164436 .00000148 00000-0 30880-4 0 9997
2 40958 98.0045 0.9977 0018971 132.2212 228.0612 14.72908737 54834
AO-85
1 40967U 15058D 16287.35932789 .00000399 00000-0 63108-4 0 02823
2 40967 064.7766 247.4812 0189304 167.0496 193.5586 14.75189167040707
ATHENOXAT-1
1 41168U 15077C 16287.85483733 .00004175 00000-0 20593-3 0 9994
2 41168 14.9898 167.6992 0012906 202.3494 226.0527 15.10558244 45720
ChubuSat-2
1 41338U 16012B 16287.21334353 .00000993 00000-0 72027-4 0 9990
2 41338 31.0031 240.5691 0013987 135.5728 224.6031 14.99525834 35887
ChubuSat-3
1 41339U 16012C 16287.24314050 .00000818 00000-0 57756-4 0 9994
2 41339 31.0113 239.9404 0013545 141.1865 218.9746 14.99746927 35863
Horyu-4
1 41340U 16012D 16287.24593867 .00001530 00000-0 11248-3 0 9998
2 41340 31.0050 238.9021 0014359 148.0184 212.1325 15.00245145 35894
OUFTI-1
1 41458U 16025C 16286.98028256 .00005659 00000-0 31058-3 0 9994
2 41458 098.2130 304.2380 0179257 035.4911 325.8086 15.01834221025467
e-st@r-II
1 41459U 16025D 16287.78216291 .00005185 00000-0 28559-3 0 9998
2 41459 98.2129 305.0733 0179149 32.9284 328.2949 15.01779478 25571
AAUSAT4
1 41460U 16025E 16287.75598666 .00006081 00000-0 33620-3 0 9997
2 41460 98.2041 305.1004 0174214 31.7584 329.3980 15.02195990 25575
MinXSS
1 41474U 98067HU 16287.80586201 .00081958 00000-0 82525-3 0 9990
2 41474 51.6422 181.0903 0002789 188.3483 171.7466 15.64692982 23453
CADRE
1 41475U 98067HV 16287.72353386 .00153299 00000-0 11717-2 0 9990
2 41475 51.6368 178.9998 0003884 182.5192 177.5787 15.71160013 23477
NODES 1
1 41477U 98067HX 16287.13961453 .00034871 00000-0 39712-3 0 9997
2 41477 51.6386 185.6149 0002653 171.5235 188.5804 15.61919564 23240
NODES 2
1 41478U 98067HY 16287.71988139 .00034914 00000-0 39319-3 0 9993
2 41478 51.6382 182.7401 0002540 173.9605 186.1939 15.61876501 23334
LO-87
1 41557U 16033B 16287.76452947 .00003863 00000-0 15291-3 0 9994
2 41557 97.4878 1.1248 0015408 151.0259 323.6489 15.25949275 20831
NuSat2
1 41558U 16033C 16287.77750956 .00003859 00000-0 15342-3 0 9999
2 41558 97.4903 1.1517 0014824 149.5708 327.7879 15.25811961 20830
Lapan A3
1 41603U 16040E 16287.72088387 .00000487 00000-0 26415-4 0 9993
2 41603 97.4980 346.1398 0012450 209.4326 274.2058 15.19154975 17233
Swayam
1 41607U 16040J 16287.16462072 .00004065 00000-0 19402-3 0 9995
2 41607 97.4967 345.5692 0014006 213.5403 146.4946 15.19550859 17072
Pratham
1 41783U 16059A 16287.84339386 .00000089 00000-0 26951-4 0 9996
2 41783 98.2027 345.2872 0032992 211.2140 148.7087 14.62766447 2598
OBJECT B
1 41784U 16059B 16287.77079030 .00000211 00000-0 50394-4 0 9991
2 41784 98.2038 345.2255 0031124 211.3916 148.5427 14.63119462 2545
OBJECT C
1 41785U 16059C 16287.76971571 -.00000434 00000-0 -74337-4 0 9994
2 41785 98.2025 345.2264 0030726 210.9666 148.9787 14.63187798 2546
OBJECT D
1 41786U 16059D 16287.72550445 .00001024 00000-0 19458-3 0 9990
2 41786 98.2295 345.3172 0001217 104.6776 255.4417 14.66291097 2544
OBJECT E
1 41787U 16059E 16287.76686083 .00000157 00000-0 39699-4 0 9999
2 41787 98.2032 345.2314 0029868 210.6873 149.2574 14.63447162 2546
OBJECT F
1 41788U 16059F 16287.28618650 .00000121 00000-0 32673-4 0 9998
2 41788 98.2033 344.7550 0029075 214.0894 145.8452 14.63624167 2476
AlSat 1N
1 41789U 16059G 16287.76076984 .00000208 00000-0 48964-4 0 9996
2 41789 98.2034 345.2410 0027849 206.5981 153.3791 14.63957941 2557
ScatSat
1 41790U 16059H 16287.72134986 .00000068 00000-0 28323-4 0 9992
2 41790 98.1019 341.6982 0011047 180.3159 179.8023 14.50100894 2547
OBJECT J
1 41791U 16059J 16287.18280562 .00000116 00000-0 33569-4 0 9997
2 41791 98.2770 344.5994 0041584 220.3545 139.4568 14.60735362 2485
OBJECT K
1 41792U 16059K 16287.82798293 .00000519 00000-0 10779-3 0 9998
2 41792 98.2058 345.3151 0026887 211.3538 148.6050 14.64056878 2558
